This demonstration page uses our WeatherBlox Daily Observations layout. Learn more.

Left ArrowRight Arrow

31.84235, -102.49876

Hourly Observations for October 5, 2022

Temp ( °F °C ) Dew Point ( °F °C ) Humidity (%) Winds ( mph kmh ) Pressure ( in mb ) Visibility ( mi km ) Precip ( " mm )
12:53 am 00:53 Mostly Clear 71 21.7 52 11.1 51 51 SSW 10 17 29.98 1015 10 16 0.00 0.00
1:53 am 01:53 Mostly Clear 69 20.6 53 11.7 57 57 WSW 7 11 29.98 1015 10 16 0.00 0.00
2:53 am 02:53 Clear 66 18.9 52 11.1 61 61 SSW 3 6 29.98 1015 10 16 0.00 0.00
3:53 am 03:53 Clear 65 18.3 52 11.1 63 63 SE 7 11 29.98 1015 10 16 0.00 0.00
4:53 am 04:53 Clear 62 16.7 52 11.1 70 70 ENE 5 7 29.98 1015 10 16 0.00 0.00
5:53 am 05:53 Clear 63 17.2 51 10.6 65 65 SE 7 11 29.98 1015 10 16 0.00 0.00
6:53 am 06:53 Clear 65 18.3 49 9.4 56 56 SSE 8 13 29.99 1016 10 16 0.00 0.00
7:53 am 07:53 Sunny 63 17.2 49 9.4 60 60 SE 7 11 30.01 1016 10 16 0.00 0.00
8:53 am 08:53 Sunny 66 18.9 50 10 56 56 SSE 7 11 30.03 1017 10 16 0.00 0.00
9:53 am 09:53 Mostly Cloudy 69 20.6 52 11.1 54 54 SSE 10 17 30.04 1017 10 16 0.00 0.00
10:53 am 10:53 Sunny 71 21.7 52 11.1 51 51 S 12 19 30.05 1018 10 16 0.00 0.00
11:53 am 11:53 Sunny 77 25 50 10 39 39 S 13 20 30.03 1017 10 16 0.00 0.00
12:53 pm 12:53 Sunny 80 26.7 50 10 35 35 SE 12 19 30.01 1016 10 16 0.00 0.00
1:53 pm 13:53 Mostly Cloudy 80 26.7 50 10 35 35 S 12 19 30.00 1016 10 16 0.00 0.00
2:53 pm 14:53 Mostly Sunny 82 27.8 49 9.4 32 32 undefined N/A 29.98 1015 10 16 0.00 0.00
3:53 pm 15:53 Mostly Cloudy 83 28.3 48 8.9 30 30 VRB 7 11 29.96 1015 10 16 0.00 0.00
4:53 pm 16:53 Mostly Cloudy 78 25.6 56 13.3 47 47 N 13 20 29.97 1015 10 16 0.00 0.00
5:53 pm 17:53 Mostly Sunny 78 25.6 56 13.3 47 47 undefined N/A 29.97 1015 10 16 0.00 0.00
6:53 pm 18:53 Mostly Cloudy 75 23.9 57 13.9 54 54 NNE 14 22 29.99 1016 10 16 0.00 0.00
7:53 pm 19:53 Mostly Cloudy 74 23.3 54 12.2 50 50 NE 15 24 30.02 1017 10 16 0.00 0.00
8:53 pm 20:53 Cloudy 70 21.1 57 13.9 63 63 NE 15 24 30.05 1018 10 16 0.01 0.13
9:53 pm 21:53 Mostly Cloudy 69 20.6 56 13.3 63 63 N 12 19 30.09 1019 10 16 0.00 0.00
10:53 pm 22:53 Mostly Cloudy 67 19.4 56 13.3 68 68 N 14 22 30.10 1019 10 16 0.00 0.00
11:53 pm 23:53 Partly Cloudy 65 18.3 59 15 81 81 N 12 19 30.10 1019 10 16 0.00 0.00

Powered by AerisWeather